Wind_Speed
7 7 6 6 7 8 8 9 9 9 10 11 12 12 11 11 12 12 13 13 13 14 14 13 14 16 17 17 17 17 18 19 21 24 27 28 29 30 30 31 33 35 36 36 34 32 31 30 30 30 28 27 24 22 21 19 18 18 17 16 15 14 12 11 10 9 8 7 7 8 8 7 7 8 9 10 9 6 4 4 5 7 8 9 10
5 4 4 5 7 8 8 8 8 9 10 11 12 13 12 12 12 12 12 13 14 14 15 15 15 16 17 17 17 18 19 18 18 20 25 27 28 30 31 32 33 35 37 38 36 34 31 30 32 31 29 27 25 24 22 20 19 18 17 17 15 13 11 10 10 9 9 8 7 8 9 8 8 8 8 8 8 5 1 1 2 6 9 9 8
6 5 5 6 8 9 8 8 8 9 10 11 11 12 13 14 14 13 13 13 13 13 14 15 16 16 16 16 16 17 19 20 19 20 23 25 27 30 33 35 35 36 38 38 37 36 33 31 33 32 29 27 26 26 24 21 20 18 16 15 14 12 12 12 11 10 9 7 8 8 8 8 8 7 7 7 6 4 3 2 3 1 7 9 7
7 7 6 6 7 9 9 9 9 10 11 11 11 12 13 14 14 14 14 13 13 12 12 13 14 15 16 16 15 16 17 20 22 22 21 23 25 28 33 37 38 38 39 38 36 36 34 34 34 33 30 28 27 27 26 23 21 19 17 15 14 13 13 13 12 11 9 9 10 8 6 6 6 6 6 5 3 3 3 3 4 3 2 6 7
6 6 5 6 7 8 9 9 10 11 11 11 12 13 13 13 13 13 13 12 12 12 13 13 13 15 16 16 15 16 17 19 21 21 20 21 23 25 28 34 37 39 41 40 38 37 36 35 35 34 31 30 29 30 30 27 23 21 19 16 15 15 14 13 12 12 12 11 11 10 8 7 7 7 7 5 4 4 4 5 5 4 3 6 5
7 6 7 7 8 9 9 10 11 11 11 11 12 13 12 12 11 12 12 12 12 12 12 12 12 12 14 16 16 17 17 17 18 19 18 19 21 23 25 28 33 36 39 41 40 39 39 36 34 35 34 32 30 29 30 28 23 21 20 17 17 16 15 13 11 11 12 10 9 9 7 7 8 9 7 5 4 5 9 9 8 7 7 8 5
8 7 7 8 8 9 10 10 10 12 12 12 11 10 10 9 9 10 12 13 13 12 12 12 11 9 12 18 20 21 21 20 20 20 18 18 20 23 24 26 29 33 36 40 41 40 41 39 35 35 36 35 32 27 24 23 21 21 20 17 17 17 15 14 13 11 11 9 9 8 7 8 9 8 6 4 4 9 12 11 9 8 7 6 4
9 8 8 8 9 9 10 10 12 12 11 9 8 8 9 8 8 9 10 13 14 14 13 13 12 11 14 19 21 21 22 23 24 24 22 22 22 23 25 25 27 31 33 36 39 40 42 41 39 37 35 34 34 28 23 22 23 23 20 17 17 17 15 15 14 11 10 9 10 9 8 7 7 6 8 10 10 12 11 8 6 4 3 5 5
9 8 9 9 9 10 10 11 12 11 8 7 7 8 8 7 8 9 9 11 14 16 15 13 12 14 16 17 18 19 21 22 24 25 25 26 25 25 25 24 25 28 29 30 33 38 41 40 39 40 37 33 31 26 24 26 25 22 20 18 18 17 15 14 13 10 9 9 8 7 7 8 10 10 11 13 14 13 10 8 4 1 2 4 7
9 8 9 10 9 10 10 9 9 8 7 7 8 8 7 8 10 10 9 11 14 16 16 13 11 13 14 13 15 18 20 23 25 26 26 28 28 28 27 27 27 28 28 29 31 35 38 39 38 38 36 33 28 23 23 26 25 21 20 19 18 17 16 14 12 11 9 7 5 6 9 11 12 13 13 13 12 11 10 7 2 2 3 2 6
9 8 9 10 10 10 9 9 9 8 7 8 9 8 7 8 10 10 9 11 14 16 16 13 11 11 12 12 13 15 18 20 23 25 27 28 29 30 29 28 29 30 30 29 31 35 38 39 38 36 35 32 28 23 23 25 23 22 21 19 17 17 16 14 14 13 10 6 6 9 12 12 12 13 14 13 11 10 8 4 3 5 6 2 3
8 8 9 10 10 10 10 9 9 9 9 9 9 10 10 10 10 9 9 11 13 15 15 13 12 11 11 11 12 13 15 17 19 21 22 24 26 29 28 26 27 31 30 28 30 35 38 39 37 33 32 33 31 28 27 25 24 23 21 19 18 17 16 15 15 14 12 10 11 12 12 13 13 14 12 11 10 7 5 6 6 8 8 4 3
9 8 9 11 10 10 10 10 9 9 9 9 9 11 11 11 11 11 10 11 12 14 14 12 12 11 9 10 12 12 14 15 15 16 16 16 18 22 26 25 25 28 28 27 30 33 36 38 35 29 28 30 31 30 28 26 24 23 21 19 18 18 17 16 15 14 14 14 14 14 14 14 14 13 11 10 9 6 6 9 8 8 8 4 3
10 10 11 11 10 9 9 9 9 9 9 10 10 10 10 11 12 12 11 10 10 12 13 13 13 10 7 9 10 11 13 15 15 14 13 13 12 14 21 25 24 24 26 28 30 32 33 34 31 26 25 27 27 28 27 26 25 23 21 20 19 18 17 17 17 15 14 15 16 15 16 17 15 13 12 11 10 9 9 11 8 6 5 3 2
11 11 11 10 9 9 9 9 9 9 10 10 10 10 11 12 12 12 10 9 10 13 15 15 13 9 5 6 8 10 11 14 15 14 12 12 11 10 13 18 20 20 23 25 28 31 32 30 27 24 24 24 25 25 24 24 25 23 21 21 19 18 16 16 16 16 15 16 17 16 16 16 15 14 13 12 12 10 8 8 6 6 5 3 4
12 12 11 10 9 9 10 10 9 9 10 10 10 11 12 11 11 11 10 9 11 14 14 12 11 7 4 4 6 8 9 12 13 14 13 11 10 8 8 13 15 16 18 22 26 29 30 31 31 30 29 27 25 23 21 22 23 22 21 20 18 16 16 16 15 15 14 15 16 16 15 14 14 13 12 11 10 7 8 8 8 8 6 5 1
13 12 11 11 10 10 11 11 10 9 9 9 10 11 13 13 11 10 8 8 10 12 10 7 7 6 4 3 5 6 7 10 12 12 12 11 9 5 3 11 15 16 18 22 24 24 25 28 30 31 32 30 26 23 22 21 21 19 18 17 15 14 15 14 13 13 13 13 14 13 13 12 12 11 9 8 7 7 10 11 10 9 6 6 2
14 13 12 11 11 11 11 10 10 10 8 7 8 11 15 15 12 9 8 8 10 10 8 6 7 6 4 2 4 5 6 8 10 11 11 10 9 6 1 6 13 17 20 22 23 22 22 22 22 24 26 26 24 23 20 19 18 17 14 13 13 13 13 13 13 12 12 12 12 11 10 10 9 9 7 7 7 8 8 8 9 9 8 7 4
14 13 12 12 11 12 12 12 12 11 8 7 8 11 15 14 10 9 10 9 9 8 6 7 8 7 4 2 2 3 3 5 7 10 10 9 9 7 4 3 6 10 14 17 20 21 22 22 21 20 21 21 20 19 17 16 16 12 9 10 12 13 13 12 11 11 11 11 11 10 9 9 8 8 8 8 8 7 6 6 7 8 8 8 7
14 13 13 12 13 12 12 12 12 11 9 7 8 12 16 15 12 12 10 7 7 7 7 8 8 7 5 3 1 1 0 2 3 6 8 8 7 6 4 2 3 5 8 10 14 17 20 21 21 20 19 18 18 16 14 12 11 8 7 9 12 13 13 13 11 11 11 11 10 10 10 9 9 9 8 7 5 4 4 4 5 6 7 7 7
14 13 13 13 14 13 12 12 12 12 12 10 9 12 15 14 13 12 10 7 7 10 12 11 8 6 6 5 2 2 1 1 1 2 6 6 4 5 4 2 3 5 8 9 10 12 15 16 17 18 18 18 19 17 14 11 9 7 7 9 12 14 14 13 13 12 11 12 11 11 11 10 9 8 7 5 3 2 3 3 4 4 5 4 5
14 13 13 13 14 14 15 14 14 14 14 11 9 11 13 13 11 10 10 8 8 11 12 10 7 7 8 6 4 3 3 3 4 3 4 4 2 1 2 2 4 7 9 10 10 10 12 14 16 17 18 20 21 19 17 13 10 8 8 9 12 14 13 13 14 14 13 12 11 10 10 8 6 5 4 5 4 2 3 4 4 4 4 3 4
13 13 13 14 14 13 13 13 13 13 13 11 11 12 11 12 11 9 10 10 8 9 10 8 7 6 7 6 5 3 4 4 6 6 4 4 4 4 2 3 6 8 9 9 10 12 13 14 16 19 21 22 22 20 18 15 12 12 12 9 10 14 15 13 14 14 13 12 11 9 8 6 5 3 2 3 4 3 4 4 4 4 4 3 4
13 13 13 12 12 12 12 13 14 13 12 11 12 15 13 10 10 9 9 10 9 8 7 6 6 5 7 8 7 4 5 5 8 9 5 3 6 9 9 9 9 10 10 9 9 11 13 14 16 18 20 21 21 20 18 15 14 15 14 9 11 16 16 15 14 13 12 12 11 10 9 8 6 4 1 2 3 4 4 4 4 4 3 3 5
14 14 12 10 10 10 11 12 12 12 10 9 9 12 13 10 10 10 8 7 7 8 7 6 6 7 9 10 8 5 5 7 10 10 7 6 9 12 13 12 11 12 11 8 8 11 14 14 15 17 18 19 20 19 18 17 16 15 13 12 14 17 15 13 13 13 13 12 12 11 11 10 7 3 1 2 4 4 3 4 4 3 2 2 3
14 14 12 10 11 11 10 11 12 11 9 8 7 8 7 6 7 10 10 7 7 9 9 8 9 9 9 9 7 5 5 9 12 12 10 10 12 13 12 11 11 12 12 9 9 13 16 16 17 17 18 18 19 19 19 18 15 14 13 14 15 16 13 12 12 12 11 10 9 9 8 7 5 4 3 4 3 2 2 4 4 1 1 3 4
14 13 12 11 12 12 12 13 13 13 11 9 8 10 9 7 8 10 11 9 9 11 11 10 9 10 10 9 7 5 6 11 14 13 13 14 14 12 11 12 13 12 12 11 12 15 17 17 17 17 17 18 17 17 17 16 16 16 16 16 16 14 12 12 12 11 10 9 8 7 5 3 3 4 5 5 3 2 3 2 3 2 2 6 7
12 11 11 11 12 13 14 15 14 14 13 11 9 11 12 11 12 13 11 10 11 11 11 10 10 11 11 9 8 7 8 12 15 15 16 17 16 13 13 13 12 10 10 12 15 15 16 16 17 17 18 18 18 18 18 19 19 19 16 14 14 14 14 14 13 12 10 9 9 8 6 4 3 4 5 4 1 3 5 4 3 3 4 5 5
12 11 10 11 13 14 15 15 15 14 14 13 12 12 12 12 14 14 12 10 10 10 11 11 10 10 10 8 8 9 10 14 17 17 18 19 17 14 14 13 12 9 10 14 16 16 17 18 19 20 20 20 21 21 21 20 18 14 11 11 13 15 15 14 13 13 12 10 9 8 5 4 4 4 4 4 5 5 5 5 4 4 4 3 2
12 12 12 13 15 15 14 14 14 14 14 14 14 14 13 12 12 13 12 11 10 11 13 13 10 10 10 9 9 10 11 15 18 18 19 20 19 16 15 14 12 11 13 15 17 18 19 20 20 20 21 21 20 20 18 15 13 11 10 10 11 12 13 11 10 11 11 9 7 5 5 5 5 3 5 6 7 5 5 6 5 4 2 1 1
13 14 14 16 16 15 14 14 14 14 14 14 15 15 15 15 16 16 16 15 12 12 15 14 10 10 11 10 10 10 10 12 17 18 19 20 20 17 14 13 13 15 18 19 19 19 19 19 18 17 17 16 15 14 13 11 10 10 9 9 10 10 10 9 8 7 8 8 7 6 6 7 6 5 6 8 8 6 4 4 4 2 3 3 4
14 15 15 16 16 16 15 14 14 14 13 14 15 14 14 15 15 16 18 19 16 13 15 15 12 11 11 11 11 12 9 11 15 18 19 20 20 17 15 15 17 19 20 20 20 18 15 14 14 13 13 12 11 11 11 11 10 9 8 10 10 8 9 11 11 6 5 6 7 6 6 7 7 7 9 8 7 5 6 6 5 4 5 6 6
15 15 15 16 16 16 15 14 14 14 14 14 15 15 14 13 13 14 15 19 19 16 16 17 15 12 12 11 12 13 11 11 16 19 20 22 21 18 17 17 19 21 20 19 19 16 13 10 7 7 10 11 10 10 10 10 10 9 8 9 9 8 8 11 12 8 5 7 9 8 7 6 7 9 10 7 4 3 6 8 7 5 6 7 8
16 15 16 16 15 14 14 15 16 15 14 15 15 15 14 14 15 14 12 14 18 18 17 18 18 16 14 12 13 14 13 14 18 21 22 22 21 18 18 20 21 20 18 17 17 16 14 11 9 8 11 12 11 10 11 10 9 9 9 8 7 7 8 10 10 8 7 9 11 11 9 7 8 9 9 7 5 5 8 9 7 6 8 9 11
16 16 17 16 15 12 12 13 15 15 15 16 15 14 13 13 16 15 11 10 13 16 16 17 19 19 17 14 14 15 15 17 20 22 21 21 20 19 20 21 22 20 19 18 17 14 12 12 12 11 12 13 12 11 11 10 9 10 10 9 8 9 9 8 8 10 8 5 6 8 8 7 8 8 9 10 10 9 10 10 9 8 10 12 14
17 17 17 18 17 15 12 12 13 14 15 15 14 13 13 13 13 12 10 9 9 11 14 16 17 19 18 15 15 17 18 19 21 21 21 20 20 20 21 22 21 21 20 18 15 11 9 10 12 12 11 12 11 10 10 10 10 11 11 9 10 11 11 10 11 12 10 7 7 10 10 9 9 10 11 13 12 10 10 11 11 12 14 16 17
18 17 18 19 19 17 15 13 13 14 15 15 14 13 13 13 11 10 10 9 6 7 11 14 17 19 19 18 19 21 21 22 22 21 21 21 21 21 22 21 20 20 18 15 14 13 13 13 13 11 11 12 12 10 10 10 10 11 10 9 9 11 11 11 13 13 12 11 11 11 11 11 12 14 14 14 12 11 13 14 15 15 17 18 18
19 18 19 18 18 18 16 15 15 15 15 15 15 14 14 14 12 11 11 10 7 7 10 12 15 20 21 21 22 23 23 23 23 22 22 22 21 22 22 21 21 20 17 13 13 15 16 16 13 9 10 12 13 11 10 10 10 11 11 11 12 12 10 11 13 13 14 14 15 13 11 10 11 13 13 14 15 17 18 19 18 17 17 16 16
20 20 20 19 18 17 15 14 15 15 15 15 15 15 14 14 13 12 12 12 11 11 12 12 13 18 22 23 24 26 26 25 25 24 23 23 22 21 22 23 22 21 20 16 14 14 12 11 10 9 10 11 12 11 10 10 10 11 11 10 11 11 9 9 12 13 12 13 16 16 14 12 12 13 14 16 18 19 20 19 17 17 16 16 18
20 20 21 20 17 15 15 14 14 15 16 16 16 15 15 15 15 13 13 14 13 14 15 15 13 15 21 24 26 27 26 26 26 24 23 23 22 22 22 23 22 21 20 19 19 18 14 11 10 11 11 12 12 12 12 11 10 10 10 10 10 10 8 8 9 10 8 8 11 13 13 14 16 17 18 20 20 20 19 18 18 18 18 20 21
21 21 22 22 20 17 15 15 14 15 16 16 17 17 16 15 15 15 14 15 14 14 16 18 16 15 18 21 24 25 25 24 25 25 24 23 22 22 22 22 22 20 19 20 21 19 15 14 15 14 13 13 14 14 14 13 11 10 10 10 12 13 13 13 13 12 12 12 14 15 16 18 19 20 21 22 22 21 20 20 20 20 21 21 20
22 23 23 24 23 22 20 18 16 16 16 16 16 17 17 16 17 16 16 16 16 15 16 17 18 17 17 17 19 22 25 24 24 24 24 23 22 21 21 21 21 20 20 21 20 16 14 15 18 18 16 14 14 14 14 14 13 13 13 12 12 13 15 16 17 17 17 18 20 20 21 21 21 22 22 21 21 20 20 21 21 21 21 21 20
23 24 24 25 25 25 24 22 19 18 18 18 17 17 17 17 17 17 17 17 17 17 16 17 18 20 20 18 16 18 22 25 25 25 24 23 23 21 20 20 20 21 22 21 17 13 13 15 17 18 17 16 15 14 14 14 14 15 15 14 13 13 14 16 17 18 20 21 22 21 21 21 21 20 20 19 19 20 20 20 21 21 21 20 20
23 25 25 25 26 27 27 25 21 18 19 20 19 18 18 18 17 17 18 18 18 18 18 17 17 19 22 22 20 19 20 22 25 26 26 25 23 21 19 18 18 20 21 20 17 14 13 16 18 18 18 18 17 15 15 16 16 16 15 15 16 16 17 17 19 20 20 20 20 19 18 18 17 17 17 18 19 20 20 20 20 21 20 21 20
24 25 24 24 25 27 28 27 25 21 20 21 20 19 19 18 18 18 18 18 19 19 19 18 18 18 21 22 23 22 22 21 22 24 25 25 23 22 21 21 21 19 18 17 17 17 18 19 20 20 20 20 20 18 17 17 18 18 18 18 19 19 19 19 20 21 20 18 18 17 16 16 16 16 17 17 18 18 19 20 20 21 21 22 22
24 25 23 22 23 25 26 27 26 24 23 22 21 20 19 19 19 19 18 18 19 19 20 20 20 20 20 22 23 24 24 24 23 23 24 25 24 23 23 25 26 26 23 18 17 19 21 21 21 21 20 20 20 20 20 20 21 23 23 22 21 20 19 18 19 20 19 18 17 16 16 16 16 17 17 17 17 18 20 21 21 22 23 23 23
25 26 25 24 23 23 24 24 24 24 23 23 23 22 21 20 20 20 20 19 19 19 20 20 21 21 21 22 23 23 24 26 26 25 26 27 26 26 25 26 27 29 28 24 20 20 22 23 23 23 22 21 20 20 21 22 24 26 26 25 24 23 22 21 20 19 18 17 17 17 17 18 19 19 19 19 20 21 21 22 22 22 23 23 23
26 25 25 25 26 25 24 23 22 23 24 24 24 23 22 21 21 21 21 21 20 21 21 21 21 22 22 22 22 23 24 25 27 28 28 28 28 28 29 29 26 24 25 26 24 23 25 26 26 26 25 23 22 22 22 24 26 27 27 27 26 26 25 25 23 20 18 18 18 18 19 19 20 20 20 21 22 22 22 22 22 22 23 23 23
26 24 25 26 27 26 24 23 23 23 24 24 25 24 23 23 23 22 22 22 22 22 23 23 22 23 24 24 24 24 24 25 28 30 30 30 30 30 31 32 29 24 22 24 26 27 27 27 28 28 26 24 24 24 25 25 27 29 29 27 27 27 28 27 26 23 22 21 21 20 20 20 20 21 22 22 22 22 21 21 22 22 23 24 23
29 27 27 27 27 27 25 25 24 24 24 25 25 25 24 25 25 24 24 24 23 24 25 25 24 24 25 25 26 27 26 26 28 29 29 30 31 31 32 34 34 31 26 25 27 29 29 28 28 28 27 26 26 27 28 28 29 30 28 27 26 27 29 29 27 26 25 25 24 23 23 23 22 22 22 22 22 22 21 21 22 23 24 24 23
30 29 28 27 27 28 28 27 26 26 26 26 26 25 25 26 26 26 26 26 25 25 26 26 26 26 26 26 26 28 29 30 30 29 29 30 30 31 32 33 34 34 33 30 29 29 29 29 29 29 28 28 28 29 30 31 30 29 27 27 27 28 29 29 29 28 28 28 28 27 26 25 24 24 23 23 22 21 21 22 24 24 24 23 23
Wind_Direction
247 241 245 254 261 257 251 257 262 264 269 272 273 275 280 284 284 280 271 264 260 257 257 259 262 268 270 269 269 267 264 261 256 251 249 251 251 246 244 242 237 237 239 240 239 237 236 234 235 238 239 240 238 236 240 242 239 239 238 232 232 236 238 239 237 233 237 244 237 238 245 229 224 243 237 234 249 258 277 310 336 349 339 333 334
250 223 239 265 273 268 257 260 267 267 270 274 277 278 277 280 287 289 279 271 267 263 258 256 254 258 265 271 274 274 270 264 257 251 248 248 248 244 241 239 236 236 239 240 237 236 235 234 235 237 237 239 238 237 239 239 234 236 235 230 229 229 233 234 226 231 242 244 241 245 251 243 234 235 226 230 251 249 197 349 348 348 329 318 329
236 225 256 284 292 290 276 271 276 275 274 275 279 280 278 278 284 286 285 282 280 274 264 260 259 258 259 263 268 272 273 271 265 256 249 246 243 240 238 237 237 237 239 240 238 235 234 235 237 236 235 238 238 237 239 235 230 234 234 228 224 221 224 229 225 227 237 244 252 255 256 252 239 229 226 236 247 204 158 245 231 299 325 308 312
242 250 276 291 297 303 300 294 292 287 282 278 277 279 279 281 284 285 287 285 282 276 266 262 262 261 260 261 261 261 263 267 269 265 257 250 243 238 237 237 237 237 239 238 236 235 234 235 237 236 234 235 235 236 237 232 225 228 229 221 219 220 225 234 237 238 239 238 242 244 243 238 217 206 223 233 228 169 155 267 246 136 11 303 308
231 246 264 273 279 289 293 298 301 299 294 288 282 279 277 280 283 286 287 281 276 272 267 263 261 260 260 260 262 262 259 261 266 267 266 259 247 238 238 238 237 236 237 235 233 233 233 235 237 236 233 233 234 235 235 231 221 217 219 217 217 219 224 236 244 245 245 243 239 234 232 229 201 188 208 200 160 156 184 226 224 164 206 261 298
230 247 257 266 275 282 284 289 293 292 289 284 280 278 278 278 280 282 282 280 279 277 272 266 264 270 273 264 258 255 253 255 258 258 263 265 255 244 241 241 239 236 235 234 234 233 234 236 236 234 230 229 230 229 226 224 217 212 214 217 219 221 224 237 249 251 250 248 238 229 227 223 201 195 213 204 175 203 216 223 222 207 236 262 276
233 248 257 265 273 282 286 285 285 284 283 278 276 278 280 279 276 276 278 280 281 281 276 267 264 277 280 266 257 252 251 253 252 251 252 255 255 252 247 243 240 238 236 237 237 235 234 236 236 232 230 230 231 232 230 226 222 218 217 219 223 224 227 238 247 249 247 237 218 205 198 198 198 201 202 180 198 225 225 233 240 229 250 284 268
226 239 255 266 273 282 285 282 281 282 285 288 284 278 272 270 274 278 282 286 286 283 278 271 266 268 267 264 265 265 262 259 257 254 251 249 251 254 252 247 242 240 240 237 236 235 232 233 235 232 230 232 233 236 238 234 229 223 221 225 227 226 229 238 242 240 240 230 208 192 184 184 187 190 184 184 209 230 235 252 266 250 277 300 285
219 233 252 263 270 279 281 284 286 285 291 300 294 285 281 283 288 290 293 295 292 288 284 280 278 277 273 272 277 276 271 267 263 259 256 253 252 254 255 253 247 246 247 241 238 237 232 230 234 233 232 233 232 230 233 235 233 229 227 229 228 224 228 232 231 228 226 217 194 171 162 168 174 181 189 200 216 232 255 280 300 313 286 295 296
221 233 250 260 268 276 276 279 287 289 291 291 291 302 313 308 304 309 311 304 296 292 290 291 293 292 286 281 282 281 278 274 270 266 261 256 253 252 252 253 251 250 251 248 244 242 235 229 230 230 229 229 227 222 224 229 231 231 231 231 226 223 223 221 215 210 201 190 176 166 172 181 186 196 208 220 227 243 271 286 286 253 247 289 309
220 231 246 258 264 271 272 272 276 281 284 285 288 300 304 295 298 311 316 307 298 293 292 295 298 299 298 295 293 292 287 281 274 269 263 257 253 252 251 252 253 253 252 249 245 243 238 231 228 225 222 221 218 212 215 224 229 229 228 227 224 221 218 213 208 199 182 174 188 183 181 186 194 208 223 234 243 259 271 245 218 261 252 229 299
221 230 246 258 260 263 267 267 270 274 280 286 288 287 288 290 296 302 299 296 294 289 287 289 292 299 311 315 312 310 305 296 285 275 268 261 255 250 248 249 251 252 251 247 241 239 237 231 225 218 214 214 214 212 217 225 228 224 222 223 220 217 214 209 207 197 179 185 202 193 184 188 196 211 227 237 244 260 255 212 223 260 249 218 256
227 235 245 254 256 258 260 260 266 272 278 284 285 286 292 296 298 295 286 281 286 286 281 278 283 297 322 331 332 334 334 327 312 295 283 275 264 252 246 245 248 249 244 238 235 235 233 226 214 201 201 207 209 211 219 225 221 215 217 219 215 213 212 208 206 197 184 193 209 207 207 212 213 217 222 226 243 267 247 226 235 249 238 213 244
229 237 244 249 251 253 255 257 263 268 277 281 281 288 296 294 291 290 285 278 276 276 273 269 273 286 320 341 347 351 353 352 344 324 302 288 279 260 246 245 249 244 235 232 232 229 226 219 206 194 196 201 204 210 214 213 212 210 210 213 212 211 213 212 214 214 207 210 217 219 226 233 234 232 229 234 261 275 250 238 242 231 204 152 227
231 237 241 242 245 250 254 258 262 267 274 279 283 292 296 293 290 286 280 275 269 267 269 269 269 277 300 329 348 356 359 2 0 352 334 309 297 284 258 251 251 242 231 227 222 213 211 213 210 207 208 206 209 212 203 195 201 205 205 209 212 214 219 223 227 231 230 229 230 229 232 235 237 243 248 253 263 263 244 236 215 178 142 97 247
231 236 239 239 242 248 251 254 259 266 272 277 286 293 291 288 288 282 271 266 268 273 277 271 266 271 283 310 340 355 3 7 7 6 1 343 325 313 272 248 243 238 231 223 210 198 198 205 208 209 212 215 215 208 193 188 197 201 201 204 209 216 224 227 228 231 232 231 231 230 230 233 239 246 249 248 247 229 205 201 184 164 119 77 229
230 235 238 238 239 242 246 251 258 265 272 279 285 287 284 281 284 284 275 262 262 272 282 280 266 261 270 319 342 351 6 14 12 13 15 8 2 356 245 216 208 204 207 211 206 195 194 201 202 198 200 205 202 191 187 192 195 196 199 205 211 217 221 219 218 220 219 220 221 223 227 230 231 231 229 228 222 202 200 201 184 164 137 108 109
230 232 237 242 241 241 242 245 253 256 260 274 282 283 285 283 277 272 265 252 252 263 270 274 269 260 258 316 341 343 5 17 9 6 13 17 19 23 67 186 182 178 181 190 194 190 186 189 190 186 184 184 182 179 184 191 194 199 207 210 210 208 204 202 204 204 204 208 212 213 213 209 205 205 205 201 189 183 195 200 184 175 173 167 172
228 230 237 245 247 244 239 238 245 248 250 265 275 280 286 283 266 252 248 243 253 265 259 260 271 271 267 292 325 328 4 23 5 355 0 10 16 20 38 117 156 162 164 171 177 175 172 172 173 172 169 167 170 175 183 190 196 203 207 201 196 190 185 189 194 195 196 197 195 189 184 181 183 185 183 178 172 167 175 188 190 194 198 190 181
228 234 240 245 249 248 240 238 242 243 246 257 266 275 282 279 262 246 234 230 251 255 232 237 260 269 268 285 307 274 339 45 18 350 348 355 2 5 18 80 134 152 155 157 158 157 159 162 163 162 163 164 168 175 182 191 198 200 191 189 187 179 174 176 179 182 183 177 170 167 166 165 169 169 165 164 162 162 173 188 197 208 215 206 186
230 236 243 247 249 242 231 231 236 238 246 256 261 271 281 282 268 247 224 213 233 238 230 233 251 269 275 284 280 241 244 163 169 320 337 338 339 347 356 38 116 148 162 161 151 144 147 152 153 153 157 161 166 172 178 182 186 183 173 174 175 172 169 169 168 166 163 158 154 154 152 153 157 156 146 140 143 148 167 181 184 187 200 203 192
230 235 242 248 248 237 230 240 249 251 258 262 248 253 273 282 272 242 218 217 233 241 241 237 240 263 278 284 275 250 248 218 194 214 292 296 272 331 346 43 104 137 161 162 152 143 140 143 145 147 154 162 167 171 176 177 171 164 161 161 162 163 164 162 157 152 147 143 139 134 133 133 141 147 135 122 124 128 137 149 152 150 157 166 173
227 235 241 242 241 236 238 257 267 266 274 274 243 230 250 275 273 239 212 213 222 239 244 230 220 247 269 276 277 253 234 219 193 194 234 253 199 174 164 121 122 145 166 166 158 152 146 144 147 151 158 166 168 169 174 177 171 166 168 168 156 153 150 141 133 130 128 127 124 121 125 131 142 171 149 94 98 113 121 124 128 134 145 156 157
224 236 239 232 233 240 251 266 272 271 281 283 249 221 218 244 263 250 225 214 212 223 234 219 211 236 254 262 271 252 221 203 183 185 204 211 178 166 159 156 163 176 180 172 167 165 161 159 159 160 164 168 169 169 173 176 173 168 169 169 151 142 133 123 122 129 135 139 140 140 145 157 173 193 203 90 99 111 121 130 127 117 120 149 157
230 235 234 223 227 243 255 266 270 268 278 289 262 225 209 216 238 246 240 224 209 213 221 219 222 235 244 254 261 243 209 187 177 179 184 173 162 160 161 167 182 193 190 184 179 176 173 172 170 169 171 172 171 171 172 172 171 169 173 174 155 138 130 135 148 154 153 153 158 162 169 181 193 207 198 137 129 108 106 125 114 72 30 125 131
230 228 226 223 228 233 239 251 257 259 270 286 273 245 229 226 234 239 241 239 224 213 211 216 228 233 237 243 243 224 188 176 175 174 168 162 160 163 170 175 182 192 199 201 191 177 171 170 168 168 169 170 171 172 172 170 171 171 171 164 146 134 138 151 154 151 154 159 166 176 187 190 188 188 177 145 118 62 52 104 109 54 321 117 101
227 228 227 226 229 230 234 241 244 246 254 262 257 251 252 244 235 238 239 236 229 217 208 211 222 229 234 234 226 208 175 171 175 170 162 162 165 170 179 182 186 198 206 198 181 169 164 164 164 163 163 165 167 168 167 165 162 156 149 143 137 139 149 152 145 146 159 163 160 168 186 174 130 132 134 115 84 335 323 62 109 151 126 106 100
225 225 222 221 225 234 239 238 234 236 242 243 241 247 244 229 230 246 249 235 225 217 209 209 217 229 242 236 209 188 173 171 172 168 164 166 171 177 182 186 193 203 196 179 168 162 160 158 155 152 153 154 154 154 152 150 146 141 138 140 145 151 154 152 152 157 162 164 166 171 180 178 124 93 107 124 163 272 291 335 43 102 107 93 88
215 215 220 226 231 237 239 234 230 232 236 233 233 244 244 225 223 237 243 236 230 217 205 209 217 226 238 227 192 181 179 172 168 168 170 171 175 181 188 195 202 198 179 167 160 154 151 148 145 144 144 142 142 143 142 140 138 140 153 165 166 166 164 158 158 162 164 170 179 177 163 154 143 120 144 203 253 269 269 297 351 54 87 76 54
212 216 225 232 235 237 236 233 232 230 229 230 229 237 244 235 225 230 234 237 239 223 209 211 213 208 211 206 185 185 194 182 171 171 176 178 181 188 196 201 198 180 165 158 152 147 144 141 140 140 139 139 140 139 137 138 144 158 170 166 159 160 158 155 162 170 169 168 171 171 164 169 183 179 173 211 253 263 248 274 325 22 50 23 291
214 219 227 231 234 233 230 231 230 223 224 231 230 231 238 239 238 242 242 240 240 226 212 211 208 201 208 207 186 187 207 201 184 179 179 179 180 183 185 182 171 161 156 150 145 142 139 137 137 136 135 136 135 135 139 147 158 167 158 139 138 144 145 157 182 182 166 162 166 176 183 184 197 208 193 211 245 251 229 257 297 309 269 274 267
213 219 226 231 234 231 228 231 232 225 223 229 231 230 231 232 236 243 241 237 236 225 210 210 211 211 218 214 190 187 206 209 196 187 179 174 174 172 168 164 159 158 155 147 139 137 136 133 132 132 136 137 137 146 158 160 160 165 149 137 154 165 158 175 198 194 157 171 187 194 198 194 198 209 213 231 251 222 193 227 259 256 259 269 269
214 221 227 231 231 226 223 226 231 231 227 228 228 226 225 231 244 250 240 232 233 228 216 214 215 218 224 218 199 195 202 202 197 191 182 176 174 171 167 164 160 160 157 147 141 147 154 155 156 155 156 155 156 167 176 168 166 177 171 160 177 185 166 179 204 213 197 199 203 202 207 210 209 216 228 250 260 196 207 243 258 253 259 265 265
217 226 233 234 229 219 216 220 226 229 231 230 229 226 225 234 244 248 243 231 228 227 225 219 215 217 226 222 205 199 201 197 194 191 186 181 178 175 170 166 164 164 161 153 153 161 167 173 185 186 179 177 176 175 179 177 180 189 184 178 196 203 181 184 213 234 226 210 206 208 217 224 224 226 231 238 241 235 240 250 253 253 258 260 265
218 224 231 234 229 220 219 224 225 225 227 229 228 226 226 230 233 238 249 250 233 227 227 223 214 214 220 218 205 200 198 193 190 189 187 184 182 178 174 170 169 170 168 166 169 172 169 174 184 183 179 182 181 176 179 181 183 188 191 191 197 201 196 201 230 249 251 227 204 211 224 236 240 234 222 223 236 246 244 244 252 255 252 258 271
219 222 228 231 227 220 221 227 226 224 226 228 226 222 221 224 229 236 251 260 241 224 222 219 211 210 213 210 201 196 193 190 189 189 188 187 183 179 177 176 175 174 174 175 178 172 158 173 190 191 183 181 182 185 192 190 186 190 195 194 195 203 217 228 232 234 238 236 229 232 235 236 235 232 233 243 254 253 239 239 245 247 254 268 281
220 222 226 227 222 218 223 229 227 225 224 223 222 220 217 219 223 227 235 245 243 218 212 210 204 203 205 202 196 193 191 189 190 190 189 188 184 180 179 177 176 177 177 177 178 173 165 172 187 197 195 192 192 195 196 195 198 201 201 198 202 211 223 227 219 212 215 223 225 222 222 231 241 246 249 251 247 233 229 236 243 251 266 279 285
222 225 226 224 217 215 220 226 225 224 223 220 218 218 217 218 217 213 217 225 225 210 209 209 202 200 200 196 192 192 191 190 192 194 192 189 186 184 181 175 173 180 187 186 186 189 185 182 190 204 204 197 197 199 198 199 206 211 213 217 219 220 225 229 224 219 221 225 223 214 210 225 245 250 243 234 230 233 239 246 255 265 274 278 283
223 226 228 227 221 213 213 219 222 220 219 217 216 216 217 217 216 213 212 214 209 204 212 218 211 204 202 198 193 193 194 195 196 196 195 193 191 190 188 183 180 186 194 197 204 210 200 189 199 214 207 198 202 208 211 212 211 212 218 225 228 230 232 231 232 238 244 244 240 238 234 231 234 238 236 234 238 245 250 255 264 271 272 273 281
221 222 224 227 223 209 202 211 221 220 218 217 216 217 218 218 215 213 212 211 206 201 210 223 225 213 208 205 201 198 198 200 200 200 199 199 198 197 198 196 194 194 195 197 205 212 209 206 218 224 213 207 210 212 212 217 221 224 230 234 235 238 234 220 224 239 245 234 229 232 231 227 228 233 237 239 243 250 256 262 269 271 272 278 285
221 221 221 224 223 215 211 217 222 222 220 219 218 218 219 219 217 214 213 214 212 205 208 220 229 226 219 214 210 209 208 206 205 204 204 204 205 206 205 205 206 208 207 202 202 211 222 229 230 226 218 213 214 216 220 225 227 229 231 231 234 240 239 232 229 231 229 225 225 225 226 228 230 235 240 245 250 257 264 269 273 276 278 282 285
222 221 218 217 218 220 223 225 226 226 225 223 222 221 220 219 220 218 215 216 217 213 212 217 222 227 228 225 218 215 216 215 212 211 210 210 211 212 212 213 214 217 215 209 207 222 245 241 224 218 220 221 221 224 227 226 226 230 234 235 239 245 245 240 235 232 233 235 236 235 234 236 239 243 248 254 260 266 271 274 276 278 280 282 284
221 222 221 220 220 223 223 223 225 230 229 224 222 222 221 220 220 220 219 218 219 219 219 218 218 222 229 233 229 222 219 219 219 218 217 217 219 218 218 218 216 214 215 213 211 224 242 236 221 217 222 226 228 230 228 224 228 235 239 239 237 239 242 241 239 238 239 240 243 245 246 247 250 253 257 261 265 269 273 276 278 279 282 284 287
220 223 225 224 224 225 223 220 221 226 230 229 226 222 221 221 222 222 222 222 221 221 222 222 221 224 230 234 233 228 223 221 222 223 223 223 225 226 225 224 220 216 215 213 208 212 227 231 227 226 227 228 230 232 230 228 230 233 237 237 233 230 232 237 239 242 246 248 251 255 256 255 256 258 260 263 267 271 273 276 278 281 285 287 289
220 222 225 225 223 222 221 220 219 222 227 231 229 224 221 222 223 223 224 225 224 224 225 224 223 226 232 235 233 230 228 226 226 226 227 226 226 226 227 227 227 225 222 219 222 230 236 233 230 229 228 228 231 232 231 231 231 232 234 236 235 235 239 242 242 248 254 258 260 263 264 263 263 264 264 265 268 270 272 275 279 283 287 288 290
216 219 224 227 223 219 218 220 221 222 225 227 228 226 225 224 222 223 225 227 226 226 227 226 224 226 232 237 236 233 231 230 228 227 228 227 225 226 229 229 229 228 228 229 234 237 235 232 232 231 227 226 231 235 234 236 238 238 237 238 241 248 255 254 251 253 259 263 266 270 269 268 270 272 273 273 272 273 276 279 281 283 285 286 286
215 218 220 221 221 222 223 222 221 222 223 224 225 226 226 225 225 227 228 228 229 229 228 228 227 226 229 236 240 237 234 232 230 230 229 228 226 227 230 233 234 233 230 228 230 233 233 232 233 232 230 230 234 236 235 238 241 241 240 242 248 255 261 262 262 265 269 270 270 270 269 269 271 274 275 276 274 275 277 279 280 281 283 284 286
215 218 218 219 222 225 223 218 216 219 222 222 224 226 227 226 228 230 229 228 230 230 229 229 230 228 228 232 237 238 236 233 231 230 231 231 229 227 227 228 232 234 231 228 229 232 233 232 232 234 235 236 235 235 236 240 243 243 245 251 258 262 263 266 269 272 274 273 272 270 270 269 268 268 270 272 273 275 279 282 284 286 287 287 289
216 220 221 221 221 220 217 215 217 220 222 222 223 225 227 227 227 229 229 229 230 231 230 229 230 229 228 228 230 232 234 233 230 228 229 231 231 230 228 227 227 228 230 233 233 232 232 234 235 237 237 236 234 234 238 243 246 247 251 260 267 268 267 269 271 272 272 273 274 272 270 268 266 265 267 269 271 275 279 283 285 285 285 285 286
216 219 220 219 218 217 219 221 222 221 220 221 223 224 225 226 226 227 228 229 229 230 231 231 230 229 229 229 229 229 230 231 230 230 231 231 231 231 232 232 229 225 226 232 235 235 235 237 237 236 236 236 235 235 238 243 247 250 257 266 270 269 269 270 271 270 270 272 272 270 269 268 267 265 265 267 269 273 278 282 285 286 286 286 287
213 215 216 217 218 218 220 221 222 221 220 221 222 223 224 226 227 227 227 228 228 230 231 232 232 231 230 230 230 230 231 231 231 232 234 235 234 232 231 232 231 228 226 228 232 234 237 239 238 236 237 237 237 237 239 243 247 254 262 268 270 269 269 270 269 267 266 268 268 268 268 268 267 266 267 269 271 276 281 286 288 289 289 289 288
Height
1513 1513 1513 1514 1514 1513 1514 1514 1515 1515 1516 1516 1517 1517 1518 1518 1518 1519 1519 1520 1520 1520 1520 1521 1521 1520 1520 1521 1521 1522 1523 1524 1525 1526 1525 1525 1526 1527 1528 1531 1533 1536 1538 1539 1540 1541 1542 1544 1545 1547 1548 1548 1549 1550 1550 1551 1552 1553 1553 1554 1554 1554 1554 1554 1555 1556 1556 1556 1556 1555 1556 1556 1556 1558 1558 1557 1557 1557 1557 1556 1555 1555 1555 1554 1553
1513 1513 1513 1513 1513 1512 1513 1513 1514 1514 1514 1515 1515 1516 1516 1516 1517 1517 1518 1518 1518 1518 1519 1518 1519 1518 1518 1519 1519 1520 1521 1522 1523 1523 1523 1523 1523 1524 1526 1529 1531 1533 1535 1536 1537 1539 1540 1541 1543 1545 1546 1546 1547 1547 1548 1549 1549 1550 1551 1552 1552 1552 1552 1553 1553 1554 1554 1554 1554 1555 1555 1554 1555 1556 1556 1556 1556 1556 1556 1556 1555 1554 1554 1553 1552
1512 1513 1512 1512 1512 1512 1512 1512 1513 1513 1513 1514 1514 1514 1514 1515 1515 1516 1516 1516 1516 1516 1516 1516 1517 1517 1517 1517 1517 1518 1518 1519 1520 1520 1521 1521 1522 1523 1524 1526 1528 1530 1531 1532 1534 1536 1537 1538 1540 1542 1543 1543 1544 1544 1545 1546 1546 1547 1548 1550 1551 1550 1550 1550 1551 1551 1551 1552 1552 1553 1553 1553 1554 1554 1555 1555 1554 1555 1555 1555 1555 1555 1553 1552 1551
1511 1512 1512 1512 1511 1511 1512 1512 1512 1512 1512 1512 1513 1513 1513 1513 1513 1514 1514 1514 1515 1515 1515 1515 1515 1515 1515 1515 1516 1516 1516 1516 1516 1516 1518 1520 1520 1519 1520 1522 1525 1527 1528 1529 1531 1533 1535 1536 1537 1539 1540 1540 1541 1541 1542 1543 1544 1544 1545 1547 1549 1549 1548 1548 1549 1549 1549 1549 1549 1550 1551 1552 1552 1552 1553 1553 1553 1554 1554 1554 1554 1555 1554 1551 1550
1510 1510 1511 1511 1511 1511 1511 1511 1511 1511 1511 1511 1511 1511 1511 1511 1511 1511 1512 1512 1513 1513 1513 1513 1513 1513 1513 1513 1513 1513 1514 1514 1514 1513 1515 1517 1517 1516 1517 1518 1521 1523 1524 1526 1527 1529 1531 1532 1534 1535 1537 1537 1538 1538 1539 1539 1540 1541 1542 1544 1545 1546 1545 1546 1547 1547 1547 1547 1547 1547 1548 1549 1550 1550 1551 1552 1552 1552 1552 1552 1552 1553 1553 1551 1550
1508 1509 1510 1510 1511 1511 1511 1511 1511 1510 1510 1510 1509 1509 1509 1510 1510 1510 1509 1510 1510 1511 1511 1511 1511 1511 1511 1511 1510 1510 1510 1511 1511 1511 1513 1514 1514 1514 1514 1516 1518 1520 1522 1523 1524 1525 1526 1528 1530 1531 1532 1532 1532 1533 1534 1535 1536 1537 1539 1540 1542 1542 1543 1544 1545 1545 1545 1545 1545 1545 1545 1546 1548 1549 1549 1550 1550 1550 1549 1549 1550 1551 1550 1550 1550
1506 1508 1508 1509 1510 1510 1510 1510 1509 1509 1509 1508 1508 1508 1508 1508 1508 1508 1507 1507 1508 1508 1508 1508 1509 1509 1508 1507 1507 1507 1508 1508 1508 1509 1510 1511 1511 1512 1512 1513 1515 1516 1517 1519 1520 1521 1523 1525 1526 1527 1528 1528 1528 1530 1532 1535 1536 1536 1536 1537 1538 1539 1541 1542 1542 1543 1543 1543 1543 1543 1543 1544 1546 1547 1548 1549 1548 1548 1547 1548 1549 1549 1549 1549 1549
1505 1506 1507 1508 1509 1509 1509 1508 1508 1508 1508 1507 1507 1507 1506 1506 1506 1506 1506 1506 1506 1506 1506 1506 1506 1506 1505 1504 1505 1505 1505 1506 1505 1506 1507 1507 1508 1509 1509 1510 1511 1512 1513 1515 1516 1517 1519 1521 1523 1524 1525 1525 1526 1527 1530 1534 1536 1535 1533 1534 1535 1536 1538 1539 1540 1541 1541 1542 1541 1540 1540 1542 1544 1545 1546 1546 1546 1545 1546 1547 1547 1548 1548 1547 1546
1503 1504 1506 1507 1507 1507 1507 1507 1506 1506 1507 1507 1506 1506 1505 1505 1505 1505 1505 1504 1504 1504 1504 1504 1503 1503 1503 1503 1503 1502 1502 1502 1502 1502 1503 1503 1504 1505 1505 1506 1507 1508 1511 1512 1512 1513 1515 1517 1519 1521 1521 1521 1523 1524 1526 1529 1532 1532 1531 1532 1533 1534 1535 1536 1537 1538 1539 1540 1540 1539 1538 1540 1541 1542 1543 1544 1544 1544 1544 1546 1546 1547 1547 1546 1545
1501 1503 1504 1505 1506 1506 1506 1506 1506 1506 1506 1506 1506 1505 1505 1505 1504 1504 1504 1503 1503 1502 1502 1502 1501 1501 1501 1501 1501 1500 1499 1499 1498 1498 1499 1499 1499 1500 1501 1502 1503 1505 1507 1507 1507 1508 1510 1513 1515 1516 1517 1518 1519 1521 1524 1527 1528 1529 1530 1530 1530 1531 1532 1533 1535 1536 1537 1538 1538 1538 1538 1538 1540 1541 1541 1542 1542 1543 1543 1544 1545 1545 1545 1545 1544
1499 1501 1503 1503 1504 1505 1505 1505 1505 1505 1505 1505 1505 1505 1505 1504 1503 1503 1503 1503 1501 1500 1501 1501 1500 1499 1499 1499 1499 1498 1497 1496 1495 1494 1494 1494 1495 1496 1497 1498 1499 1500 1501 1502 1502 1503 1505 1508 1510 1511 1512 1514 1515 1517 1521 1525 1526 1527 1527 1527 1528 1528 1529 1531 1532 1533 1535 1535 1536 1536 1536 1537 1538 1538 1539 1540 1540 1541 1542 1543 1543 1543 1544 1544 1543
1498 1500 1501 1502 1503 1503 1503 1503 1504 1504 1504 1504 1504 1504 1503 1503 1502 1503 1503 1502 1500 1499 1500 1500 1499 1498 1497 1497 1496 1495 1494 1493 1491 1490 1490 1490 1490 1491 1492 1494 1494 1495 1496 1497 1498 1498 1500 1503 1505 1506 1507 1510 1512 1513 1517 1521 1523 1523 1524 1524 1525 1526 1527 1528 1530 1531 1532 1533 1533 1534 1534 1534 1535 1535 1538 1539 1539 1540 1541 1541 1541 1542 1542 1542 1542
1497 1498 1499 1501 1501 1501 1502 1502 1502 1503 1503 1503 1503 1502 1502 1502 1501 1501 1501 1501 1500 1498 1498 1499 1498 1497 1496 1495 1495 1494 1492 1491 1489 1488 1487 1486 1486 1487 1488 1490 1490 1490 1491 1492 1493 1493 1495 1497 1499 1501 1503 1506 1509 1510 1514 1517 1518 1519 1520 1521 1522 1523 1524 1526 1528 1529 1530 1530 1530 1531 1532 1532 1533 1534 1536 1537 1538 1539 1539 1539 1540 1540 1540 1541 1540
1496 1497 1498 1499 1499 1500 1500 1501 1501 1501 1501 1501 1501 1501 1501 1500 1500 1500 1500 1500 1499 1497 1497 1497 1497 1496 1495 1495 1494 1493 1492 1490 1488 1486 1485 1484 1484 1484 1485 1486 1487 1487 1488 1488 1488 1489 1491 1493 1495 1497 1500 1502 1505 1508 1510 1512 1513 1515 1517 1518 1519 1521 1522 1524 1526 1527 1529 1529 1529 1530 1531 1532 1532 1533 1535 1536 1537 1537 1538 1538 1538 1539 1539 1540 1539
1495 1496 1497 1497 1498 1498 1499 1499 1500 1500 1500 1500 1500 1500 1499 1499 1499 1499 1499 1499 1498 1496 1496 1496 1495 1495 1495 1494 1494 1493 1492 1490 1489 1487 1485 1483 1482 1482 1483 1483 1484 1485 1485 1486 1486 1485 1487 1490 1493 1495 1497 1500 1502 1506 1508 1508 1509 1512 1514 1516 1517 1519 1521 1523 1524 1526 1527 1528 1528 1529 1529 1530 1531 1532 1534 1534 1535 1536 1536 1537 1538 1538 1539 1539 1538
1493 1494 1495 1496 1496 1497 1498 1498 1498 1498 1498 1498 1498 1498 1498 1497 1498 1498 1498 1498 1496 1495 1495 1495 1494 1493 1493 1493 1493 1492 1492 1491 1489 1487 1485 1483 1482 1482 1481 1481 1482 1483 1484 1485 1486 1485 1485 1488 1490 1492 1495 1499 1501 1504 1506 1506 1507 1509 1511 1513 1515 1517 1520 1521 1523 1524 1525 1526 1526 1527 1528 1529 1530 1531 1532 1533 1533 1534 1535 1535 1537 1537 1538 1538 1537
1492 1493 1494 1494 1495 1495 1496 1496 1496 1496 1497 1497 1497 1497 1496 1496 1497 1497 1497 1497 1496 1494 1494 1494 1493 1492 1492 1492 1492 1492 1491 1490 1490 1488 1487 1485 1483 1482 1482 1481 1480 1481 1481 1483 1485 1485 1485 1487 1488 1490 1492 1496 1499 1501 1503 1504 1506 1507 1509 1511 1513 1516 1518 1520 1521 1522 1524 1524 1525 1526 1527 1528 1529 1530 1530 1531 1532 1533 1533 1534 1535 1536 1536 1536 1536
1490 1491 1492 1493 1493 1494 1494 1495 1495 1495 1495 1495 1495 1495 1495 1495 1496 1497 1496 1496 1495 1493 1493 1493 1492 1491 1491 1491 1491 1490 1490 1490 1490 1489 1487 1486 1485 1484 1484 1483 1482 1481 1481 1481 1483 1484 1485 1486 1489 1490 1492 1494 1497 1499 1501 1503 1504 1505 1507 1509 1512 1514 1517 1518 1520 1521 1522 1523 1524 1525 1526 1527 1528 1528 1529 1530 1531 1532 1532 1533 1534 1534 1534 1535 1535
1489 1489 1490 1491 1492 1492 1492 1492 1493 1493 1494 1494 1493 1493 1493 1494 1495 1494 1494 1494 1493 1493 1493 1493 1492 1490 1489 1489 1489 1489 1489 1489 1489 1489 1488 1487 1486 1485 1485 1485 1484 1484 1483 1483 1483 1483 1484 1487 1489 1491 1493 1494 1496 1498 1499 1501 1502 1504 1506 1508 1510 1513 1515 1517 1519 1520 1521 1522 1523 1524 1524 1525 1527 1528 1529 1529 1530 1531 1532 1532 1533 1533 1533 1533 1534
1487 1488 1489 1489 1490 1490 1489 1490 1491 1492 1493 1493 1492 1491 1491 1492 1493 1492 1492 1493 1493 1493 1493 1492 1491 1490 1488 1488 1488 1488 1488 1487 1488 1488 1488 1487 1486 1486 1486 1486 1486 1486 1486 1485 1485 1485 1485 1487 1489 1490 1492 1494 1496 1497 1498 1500 1501 1503 1505 1508 1510 1512 1514 1516 1518 1519 1520 1522 1522 1523 1524 1525 1526 1527 1528 1529 1529 1530 1531 1531 1531 1532 1532 1532 1532
1485 1486 1487 1488 1488 1488 1487 1488 1489 1490 1491 1491 1491 1490 1489 1490 1491 1491 1491 1492 1492 1491 1491 1490 1490 1489 1488 1487 1487 1487 1486 1486 1487 1487 1487 1486 1486 1486 1486 1487 1487 1487 1487 1487 1487 1486 1486 1487 1488 1490 1492 1494 1496 1497 1498 1500 1502 1502 1504 1508 1510 1512 1513 1515 1517 1518 1520 1521 1521 1522 1523 1524 1525 1526 1527 1528 1528 1529 1530 1530 1530 1531 1531 1531 1531
1483 1484 1485 1486 1486 1485 1485 1486 1487 1488 1489 1489 1490 1489 1487 1488 1489 1489 1490 1490 1490 1489 1489 1489 1490 1489 1487 1486 1486 1486 1485 1485 1485 1486 1485 1485 1485 1485 1486 1486 1487 1487 1488 1488 1488 1487 1487 1488 1489 1490 1493 1495 1497 1497 1498 1500 1502 1504 1505 1508 1510 1511 1512 1514 1516 1518 1519 1520 1521 1522 1523 1524 1525 1526 1526 1527 1528 1528 1529 1529 1530 1530 1530 1530 1531
1482 1483 1484 1484 1483 1482 1483 1484 1485 1486 1486 1487 1488 1488 1486 1486 1487 1488 1488 1488 1488 1488 1488 1488 1489 1488 1487 1486 1485 1485 1485 1484 1485 1485 1484 1484 1484 1485 1486 1487 1487 1488 1488 1489 1489 1488 1488 1489 1490 1491 1494 1496 1497 1497 1498 1500 1503 1505 1507 1509 1510 1511 1513 1515 1516 1518 1519 1520 1521 1523 1524 1525 1525 1525 1525 1526 1527 1528 1528 1529 1529 1529 1529 1530 1530
1480 1481 1482 1482 1481 1481 1482 1483 1484 1484 1484 1485 1485 1485 1485 1485 1486 1486 1486 1486 1486 1487 1487 1487 1488 1487 1487 1485 1484 1484 1484 1484 1484 1485 1484 1484 1485 1486 1486 1487 1488 1489 1489 1490 1489 1489 1489 1490 1491 1493 1495 1497 1497 1498 1499 1501 1504 1507 1508 1509 1510 1511 1513 1515 1516 1517 1519 1520 1522 1524 1525 1525 1525 1524 1525 1526 1526 1527 1528 1528 1528 1529 1529 1529 1530
1478 1479 1480 1480 1480 1480 1480 1481 1482 1482 1482 1483 1483 1483 1484 1484 1485 1485 1485 1485 1485 1485 1486 1487 1487 1487 1486 1485 1484 1484 1484 1484 1484 1484 1483 1483 1485 1486 1487 1488 1489 1490 1490 1490 1490 1490 1490 1491 1492 1493 1495 1497 1497 1498 1500 1503 1505 1507 1508 1510 1511 1512 1513 1515 1516 1517 1519 1520 1522 1523 1524 1524 1524 1524 1525 1525 1526 1527 1527 1528 1528 1528 1529 1529 1529
1476 1477 1478 1478 1479 1480 1480 1480 1481 1481 1481 1482 1482 1482 1482 1483 1484 1484 1484 1484 1484 1485 1485 1486 1487 1487 1485 1484 1483 1483 1483 1484 1484 1483 1482 1483 1485 1487 1488 1488 1490 1491 1491 1490 1490 1490 1490 1491 1492 1493 1495 1496 1497 1499 1501 1503 1506 1507 1509 1511 1512 1512 1513 1514 1515 1517 1519 1521 1522 1523 1523 1523 1524 1524 1525 1526 1526 1527 1527 1528 1528 1528 1529 1529 1529
1474 1474 1475 1476 1478 1479 1480 1480 1480 1480 1481 1481 1481 1481 1481 1481 1482 1482 1483 1483 1483 1484 1485 1485 1486 1485 1484 1484 1483 1482 1483 1484 1484 1483 1482 1483 1485 1487 1488 1488 1489 1490 1490 1490 1490 1490 1491 1492 1493 1494 1495 1497 1498 1500 1502 1504 1506 1508 1510 1512 1512 1512 1513 1514 1516 1518 1520 1521 1522 1523 1522 1523 1524 1524 1525 1526 1527 1527 1528 1528 1528 1528 1528 1529 1529
1472 1472 1474 1475 1476 1478 1478 1479 1480 1480 1480 1480 1480 1481 1480 1480 1480 1481 1482 1482 1482 1483 1484 1484 1484 1484 1483 1483 1482 1482 1482 1484 1483 1482 1482 1483 1486 1488 1488 1488 1489 1490 1490 1490 1490 1491 1492 1492 1494 1495 1496 1498 1499 1501 1503 1505 1507 1509 1510 1511 1512 1512 1513 1514 1515 1518 1520 1521 1522 1523 1523 1523 1524 1525 1525 1527 1528 1528 1528 1528 1528 1528 1528 1529 1529
1470 1471 1473 1474 1475 1476 1477 1477 1478 1479 1479 1479 1479 1480 1480 1480 1479 1479 1480 1481 1481 1482 1483 1483 1483 1483 1482 1482 1482 1481 1482 1483 1483 1482 1482 1484 1486 1488 1488 1488 1489 1489 1490 1491 1491 1492 1492 1493 1494 1496 1497 1498 1500 1502 1504 1506 1507 1509 1510 1510 1511 1512 1513 1514 1515 1517 1519 1521 1522 1522 1523 1523 1524 1525 1526 1527 1528 1528 1528 1528 1528 1528 1528 1529 1530
1468 1470 1472 1473 1474 1475 1475 1476 1476 1477 1478 1478 1478 1478 1479 1479 1479 1478 1479 1480 1480 1481 1482 1482 1482 1482 1482 1481 1481 1481 1482 1483 1483 1482 1483 1484 1487 1488 1488 1488 1489 1490 1491 1491 1492 1493 1493 1494 1496 1497 1498 1500 1501 1503 1504 1506 1507 1509 1509 1510 1511 1512 1513 1514 1516 1517 1519 1521 1522 1522 1523 1524 1524 1526 1527 1528 1527 1527 1528 1528 1528 1528 1528 1529 1529
1467 1469 1471 1472 1472 1473 1474 1474 1475 1475 1476 1476 1476 1476 1477 1478 1478 1478 1478 1479 1479 1480 1481 1481 1481 1481 1481 1481 1481 1481 1482 1483 1483 1483 1483 1485 1487 1487 1488 1488 1489 1490 1491 1492 1493 1494 1495 1496 1497 1498 1499 1501 1502 1503 1505 1506 1507 1508 1509 1510 1511 1512 1514 1515 1516 1517 1519 1520 1521 1522 1523 1524 1525 1526 1527 1527 1527 1527 1528 1528 1528 1528 1528 1528 1528
1465 1467 1469 1470 1470 1471 1472 1473 1473 1474 1474 1475 1475 1475 1474 1475 1476 1476 1476 1477 1478 1479 1479 1480 1480 1480 1480 1480 1481 1481 1482 1483 1483 1483 1484 1485 1486 1487 1488 1489 1490 1491 1492 1492 1494 1495 1496 1497 1498 1498 1499 1500 1502 1503 1505 1506 1507 1508 1509 1510 1511 1512 1514 1515 1516 1517 1518 1519 1520 1521 1522 1524 1525 1525 1525 1526 1526 1527 1527 1527 1528 1528 1527 1527 1526
1464 1466 1467 1468 1468 1468 1469 1471 1472 1472 1473 1473 1474 1474 1473 1473 1473 1474 1474 1475 1476 1477 1477 1478 1479 1479 1479 1480 1480 1481 1482 1483 1483 1484 1484 1485 1486 1487 1488 1489 1490 1492 1493 1493 1494 1495 1496 1497 1498 1499 1499 1500 1502 1504 1505 1505 1507 1508 1508 1510 1511 1512 1513 1514 1515 1517 1518 1519 1520 1521 1522 1523 1524 1524 1524 1525 1525 1526 1526 1526 1527 1526 1526 1525 1524
1462 1464 1466 1466 1466 1466 1467 1469 1470 1471 1471 1472 1472 1473 1473 1472 1471 1471 1472 1472 1473 1474 1475 1476 1477 1477 1478 1479 1480 1481 1482 1482 1483 1484 1484 1485 1486 1487 1488 1490 1491 1492 1493 1493 1494 1495 1496 1497 1498 1499 1500 1501 1502 1503 1504 1505 1506 1507 1508 1509 1510 1511 1512 1513 1514 1516 1517 1518 1519 1520 1521 1522 1522 1523 1523 1524 1524 1525 1525 1525 1525 1525 1524 1523 1523
1461 1462 1464 1465 1465 1465 1465 1467 1468 1469 1470 1470 1470 1471 1472 1471 1470 1470 1471 1471 1471 1472 1472 1474 1475 1476 1477 1478 1479 1480 1481 1482 1483 1483 1484 1485 1486 1487 1488 1490 1491 1492 1493 1493 1494 1495 1495 1497 1498 1500 1500 1501 1502 1503 1504 1505 1506 1507 1508 1509 1510 1511 1512 1512 1513 1514 1515 1516 1517 1518 1519 1520 1520 1521 1522 1523 1523 1524 1524 1524 1524 1523 1522 1521 1521
1459 1460 1462 1463 1464 1464 1464 1466 1467 1467 1468 1469 1469 1470 1471 1470 1469 1469 1469 1470 1470 1470 1470 1471 1473 1474 1475 1477 1478 1479 1480 1481 1482 1483 1484 1485 1486 1487 1488 1489 1490 1491 1492 1493 1494 1494 1495 1496 1498 1499 1500 1501 1501 1502 1503 1505 1506 1507 1508 1508 1509 1510 1511 1511 1512 1513 1513 1514 1515 1516 1517 1519 1519 1520 1520 1521 1522 1522 1522 1522 1522 1521 1520 1519 1519
1457 1458 1459 1460 1461 1462 1463 1464 1465 1466 1466 1467 1468 1468 1469 1469 1469 1468 1468 1469 1469 1469 1469 1470 1471 1472 1473 1475 1476 1477 1478 1480 1481 1482 1483 1484 1485 1486 1488 1489 1490 1491 1492 1493 1493 1494 1494 1496 1497 1498 1499 1500 1501 1501 1503 1504 1505 1505 1506 1507 1509 1510 1510 1510 1511 1512 1513 1514 1514 1515 1516 1518 1518 1519 1519 1519 1520 1520 1520 1520 1519 1519 1518 1517 1516
1456 1457 1458 1458 1459 1460 1462 1463 1463 1464 1465 1465 1466 1467 1468 1468 1468 1468 1468 1468 1468 1468 1468 1468 1470 1471 1472 1473 1474 1476 1477 1479 1480 1481 1482 1483 1484 1486 1487 1488 1489 1490 1491 1492 1493 1494 1494 1495 1497 1498 1498 1499 1500 1501 1502 1503 1504 1505 1506 1506 1507 1508 1509 1509 1510 1511 1511 1512 1513 1514 1515 1516 1517 1517 1517 1517 1517 1517 1517 1517 1517 1516 1516 1514 1513
1453 1455 1456 1457 1457 1458 1460 1461 1462 1462 1463 1464 1465 1465 1466 1466 1467 1467 1467 1467 1467 1468 1467 1468 1469 1470 1471 1472 1473 1474 1476 1477 1478 1479 1481 1482 1483 1485 1486 1486 1487 1487 1489 1490 1492 1492 1493 1494 1496 1497 1498 1498 1499 1500 1501 1502 1503 1504 1504 1505 1505 1506 1507 1508 1509 1509 1510 1511 1511 1512 1513 1514 1515 1515 1515 1514 1514 1514 1515 1515 1514 1513 1513 1512 1512
1451 1453 1454 1455 1456 1456 1457 1459 1460 1460 1461 1462 1463 1463 1464 1465 1465 1466 1466 1466 1466 1467 1467 1467 1468 1469 1470 1471 1472 1473 1474 1475 1477 1478 1480 1481 1482 1483 1484 1485 1486 1487 1487 1489 1490 1491 1491 1492 1494 1496 1497 1497 1498 1499 1500 1500 1501 1502 1503 1504 1505 1505 1506 1507 1507 1508 1508 1509 1509 1510 1511 1512 1512 1512 1512 1512 1512 1512 1512 1512 1511 1510 1510 1510 1509
1449 1450 1451 1453 1455 1455 1456 1457 1458 1459 1459 1460 1461 1461 1462 1463 1463 1464 1465 1465 1465 1466 1466 1466 1466 1467 1468 1469 1471 1472 1473 1474 1475 1477 1478 1479 1481 1482 1483 1484 1485 1486 1487 1488 1488 1490 1490 1491 1493 1494 1495 1495 1496 1497 1498 1499 1500 1501 1502 1503 1503 1504 1504 1505 1506 1506 1507 1507 1508 1508 1509 1509 1510 1510 1510 1510 1509 1509 1509 1509 1508 1508 1507 1507 1506
1446 1447 1448 1450 1452 1453 1454 1455 1456 1457 1457 1458 1458 1459 1460 1461 1461 1462 1463 1464 1464 1465 1465 1465 1465 1465 1466 1468 1470 1471 1472 1473 1474 1475 1477 1478 1479 1480 1481 1482 1483 1484 1485 1486 1487 1488 1489 1490 1491 1493 1494 1494 1494 1495 1497 1498 1499 1500 1500 1501 1502 1502 1503 1503 1504 1505 1505 1505 1505 1506 1506 1507 1507 1507 1507 1507 1506 1506 1506 1505 1505 1505 1504 1504 1503
1444 1444 1445 1447 1448 1450 1451 1453 1454 1455 1455 1456 1456 1457 1458 1459 1460 1460 1461 1462 1463 1463 1464 1465 1465 1464 1464 1465 1468 1469 1470 1471 1473 1474 1475 1476 1477 1478 1479 1481 1481 1482 1483 1484 1485 1485 1487 1489 1490 1491 1491 1492 1493 1494 1495 1497 1497 1498 1498 1499 1500 1501 1501 1501 1502 1502 1502 1502 1503 1503 1504 1504 1504 1504 1504 1503 1503 1503 1502 1502 1502 1502 1501 1501 1501
1441 1442 1442 1443 1445 1446 1448 1450 1451 1452 1453 1453 1454 1454 1456 1457 1458 1458 1459 1459 1460 1461 1462 1463 1464 1464 1463 1463 1465 1467 1468 1469 1470 1471 1473 1474 1475 1476 1477 1478 1479 1481 1482 1483 1483 1484 1485 1487 1488 1489 1489 1490 1491 1492 1494 1495 1495 1495 1496 1497 1498 1499 1499 1499 1499 1499 1499 1499 1499 1500 1500 1501 1501 1500 1500 1500 1500 1499 1499 1499 1499 1499 1498 1498 1497
1438 1439 1439 1440 1442 1443 1444 1446 1448 1449 1450 1451 1452 1452 1453 1454 1455 1456 1457 1457 1458 1459 1460 1461 1462 1462 1462 1461 1462 1464 1465 1466 1467 1469 1470 1471 1472 1474 1475 1476 1477 1478 1480 1481 1481 1482 1483 1485 1486 1486 1487 1488 1489 1490 1492 1492 1492 1493 1494 1494 1495 1496 1496 1497 1497 1496 1496 1496 1496 1496 1497 1497 1497 1497 1497 1497 1497 1497 1496 1496 1496 1495 1494 1494 1493
1435 1437 1437 1437 1439 1440 1442 1443 1445 1446 1447 1449 1449 1450 1450 1451 1452 1453 1455 1455 1456 1457 1457 1458 1459 1460 1460 1459 1460 1461 1462 1464 1465 1466 1467 1468 1470 1471 1472 1473 1474 1475 1476 1478 1479 1480 1481 1482 1483 1483 1484 1485 1487 1488 1489 1489 1490 1490 1491 1492 1492 1493 1493 1494 1494 1493 1493 1493 1493 1493 1494 1493 1493 1494 1494 1494 1494 1493 1493 1493 1492 1492 1491 1491 1490
1432 1434 1434 1435 1436 1437 1439 1441 1442 1443 1445 1446 1447 1448 1449 1449 1450 1451 1452 1453 1453 1454 1455 1456 1457 1458 1458 1458 1458 1459 1460 1461 1462 1463 1464 1466 1467 1468 1469 1471 1472 1472 1473 1474 1476 1477 1478 1479 1480 1481 1481 1482 1484 1485 1486 1486 1487 1487 1488 1489 1490 1490 1490 1490 1490 1490 1491 1490 1490 1490 1490 1490 1490 1490 1490 1490 1490 1490 1490 1490 1489 1489 1488 1487 1486
1429 1431 1432 1433 1434 1435 1436 1438 1439 1441 1442 1443 1444 1445 1446 1447 1448 1448 1449 1450 1451 1452 1452 1453 1454 1455 1456 1456 1456 1456 1457 1458 1459 1461 1462 1463 1464 1465 1466 1467 1469 1470 1470 1471 1472 1474 1475 1476 1477 1477 1478 1480 1481 1482 1483 1483 1484 1484 1485 1486 1487 1486 1486 1487 1487 1487 1488 1488 1487 1487 1487 1487 1487 1487 1487 1487 1487 1486 1486 1486 1485 1484 1483 1483 1482
1427 1428 1429 1430 1431 1433 1434 1435 1437 1438 1439 1440 1442 1443 1443 1444 1445 1446 1446 1447 1448 1449 1449 1450 1451 1452 1453 1454 1454 1454 1454 1455 1456 1457 1458 1459 1461 1462 1463 1464 1465 1467 1468 1469 1469 1470 1471 1472 1473 1474 1475 1477 1478 1478 1479 1480 1481 1481 1482 1483 1483 1483 1483 1483 1483 1484 1484 1484 1484 1484 1484 1484 1484 1484 1483 1483 1483 1482 1482 1482 1481 1480 1480 1479 1478
1423 1425 1426 1427 1429 1430 1432 1433 1434 1435 1436 1437 1439 1440 1440 1441 1442 1443 1444 1444 1445 1446 1446 1447 1448 1449 1449 1450 1451 1452 1452 1452 1453 1453 1454 1455 1457 1458 1459 1460 1461 1462 1464 1465 1466 1466 1467 1469 1469 1470 1471 1472 1474 1474 1475 1476 1477 1478 1478 1479 1479 1479 1479 1479 1480 1480 1480 1480 1480 1480 1480 1480 1480 1480 1479 1479 1479 1479 1478 1478 1477 1477 1476 1475 1475
1419 1421 1423 1424 1425 1427 1429 1430 1431 1432 1433 1434 1435 1436 1437 1438 1439 1440 1441 1441 1442 1443 1443 1443 1444 1445 1446 1447 1448 1448 1449 1450 1450 1451 1451 1451 1452 1453 1455 1456 1457 1458 1460 1461 1462 1463 1464 1465 1465 1466 1467 1468 1469 1470 1471 1472 1474 1474 1475 1475 1476 1476 1476 1476 1476 1476 1476 1476 1476 1476 1476 1475 1475 1475 1475 1475 1475 1474 1473 1473 1472 1472 1471 1471 1471